[[{"header":{"parameterUnit":"m.s-1","parameterCategory":1,"la1":30.2991,"la2":30.254,"lo1":-89.0895,"lo2":-89.0444,"dy":0.0017,"dx":0.0017,"nx":28,"ny":28,"refTime":"2025-04-15T09:00:00:Z","depth":0,"parameterNumber":2,"parameterNumberName":"U-component_of_WINDS"},"data":[0,0,0,0,0,0,0,0,0,0,0,0,0,0,0,0,0,0,0,0,0,0,0,0,0,0,0,0,0,0,0,0,0,0,0,0,0,0,0,0,0,0,0,0,0,0,0,0,0,0,0,0,0,0,0,0,0,0,4.8595,4.8597,0,4.8732,4.8734,4.8735,4.8712,4.8709,4.8707,4.8704,4.8849,4.8855,4.8861,0,0,0,0,0,0,0,0,0,0,0,0,0,4.8317,4.8322,4.8595,4.8597,4.8598,4.8732,4.8734,4.8736,4.8712,4.8709,4.8706,4.8703,4.8847,4.8854,4.8862,0,0,0,0,0,0,0,0,0,0,0,0,0,4.8445,4.8324,4.8595,4.8602,4.8605,4.8732,4.8734,4.8736,4.8713,4.8709,4.8705,4.8702,4.8845,4.8854,4.8863,4.8992,0,0,4.8891,4.8895,0,0,0,0,0,0,0,0,4.8437,4.8455,4.86,4.8602,4.8605,4.8701,4.8689,4.8822,4.8714,4.8672,4.8704,4.87,4.8803,4.8815,4.8849,4.8999,4.9005,4.8891,4.8897,4.8901,4.8904,0,0,0,0,0,0,0,4.8429,4.8449,4.8649,4.8602,4.8605,4.8601,4.8615,4.8714,4.8756,4.8675,4.8674,4.869,4.8804,4.884,4.8852,4.9007,4.8891,4.8899,4.8905,4.8909,4.9272,4.9276,0,0,0,0,0,0,4.8417,4.8441,4.8645,4.8653,4.851,4.8609,4.8625,4.8674,4.8755,4.8764,4.8693,4.8688,4.8827,4.8842,4.8857,4.9016,4.8901,4.8909,4.8915,4.9268,4.9273,4.9278,0,0,0,0,0,0,4.8411,4.8435,4.8639,4.8547,4.8573,4.8617,4.8673,4.8678,4.8715,4.8768,4.8776,4.8722,4.8824,4.8845,4.8959,4.902,4.8914,4.8922,4.9263,4.927,4.9275,4.9333,0,0,0,0,0,0,4.8403,4.8433,4.8481,4.8548,4.8578,4.8737,4.8677,4.8684,4.873,4.8726,4.8798,4.8807,4.8823,4.8945,4.8968,4.9031,4.8929,4.9258,4.9266,4.9273,4.9325,4.934,4.9352,0,0,0,0,0,4.8393,4.8492,4.8484,4.8508,4.8639,4.8741,4.8758,4.8773,4.8735,4.8785,4.882,4.8805,4.901,4.8957,4.8983,4.9049,4.9254,4.9264,4.9273,4.9319,4.9337,4.9352,0,0,0,0,0,0,4.8432,4.8501,4.8492,4.8616,4.8673,4.8736,4.88,4.8791,4.8861,4.8854,4.8871,4.8888,4.9004,4.9038,4.8978,4.918,4.9127,4.9142,4.9154,4.9171,4.9184,4.9174,4.8937,0,0,0,0,0,4.8455,4.853,4.8587,4.8691,4.8719,4.8755,4.88,4.8807,4.8867,4.8891,4.8934,4.8994,4.9072,4.9123,4.9198,4.933,4.9347,4.9389,4.9402,4.9413,4.9426,4.9501,4.9521,4.9308,4.9308,4.9308,0,0,4.8503,4.855,4.8597,4.87,4.8744,4.8824,4.8775,4.8861,4.8921,4.8904,4.9015,4.9049,4.9117,4.9242,4.9298,4.9273,4.9489,4.9425,4.9433,4.9441,4.9513,4.9533,4.9551,4.9315,4.9314,4.9313,0,0,4.8631,4.8674,4.8766,4.8812,4.888,4.8903,4.8925,4.8991,4.9012,4.9124,4.9114,4.9186,4.932,4.9369,4.9412,4.9562,4.9551,4.9586,4.9657,4.973,4.9747,4.9761,4.9817,4.9836,4.9599,4.9599,4.9599,0,4.8683,4.8801,4.8814,4.8902,4.8949,4.8936,4.9031,4.9075,4.9165,4.9199,4.9169,4.9338,4.9383,4.952,4.9556,4.9591,4.9619,4.9578,4.9743,4.9758,4.9772,4.9825,4.9846,4.9603,4.9602,4.9602,4.9601,0,4.8862,4.8945,4.9011,4.9097,4.9151,4.9242,4.9271,4.9324,4.9327,4.9354,4.9469,4.9523,4.9609,4.9642,4.9646,4.9781,4.9763,4.9738,4.9685,4.9796,4.9846,4.9867,4.9608,4.9607,4.9606,4.9605,0,0,4.9019,4.9112,4.9136,4.9176,4.9251,4.9316,4.9407,4.9491,4.9538,4.96,4.9679,4.9793,4.9771,4.9819,4.9829,4.9893,5.001,4.986,4.9862,4.9888,5.0165,5.0184,5.0207,5.0003,5.0007,5.001,5.016,0,4.9156,4.9315,4.9331,4.9474,4.9552,4.9543,4.9622,4.9678,4.9706,4.9778,4.9809,4.9891,4.9854,4.9884,4.9946,4.9983,5.0067,4.9972,5.0079,5.0082,5.0063,5.0233,5.0254,5.0392,5.0179,5.0182,5.0185,0,4.9337,4.9404,4.9555,4.9621,4.9655,4.9726,4.9805,4.9872,4.9937,4.9953,5.0008,5.001,5.0106,5.0049,5.0183,5.0119,5.0164,5.0188,5.0194,5.0206,5.0141,5.0251,5.0436,5.0457,5.0216,5.0213,5.0211,0,4.9438,4.9567,4.9674,4.9709,4.9788,4.9839,4.9874,4.9935,4.9985,5.0054,5.0088,5.0168,5.0212,5.0275,5.03,5.0255,5.0434,5.0378,5.0452,5.0452,5.0491,5.0488,5.0687,5.0517,5.0517,5.0517,5.0516,0,4.959,4.9684,4.9721,4.9788,4.9893,4.9911,5.0015,5.0048,5.0103,5.0177,5.0174,5.0244,5.0271,5.0346,5.0366,5.0476,5.0495,5.0513,5.0517,5.0514,5.0512,5.0544,5.0536,5.0522,5.0521,5.052,5.0519,0,4.9721,4.975,4.9867,4.9933,4.9951,5.0026,5.0083,5.0149,5.0176,5.027,5.0294,5.0337,5.0426,5.0456,5.0564,5.0577,5.0705,5.0701,5.0683,5.0685,5.0757,5.0751,5.0985,5.1018,5.0825,5.0827,5.0828,0,4.9817,4.9889,4.9962,5.0011,5.0049,5.0127,5.0178,5.0199,5.0253,5.0333,5.0389,5.0477,5.0548,5.0691,5.0733,5.0816,5.0815,5.0891,5.0827,5.0822,5.0818,5.0814,5.0822,5.0903,5.0905,5.0907,5.0908,0,4.9985,4.9996,5.0069,5.0148,5.0208,5.0272,5.0333,5.0374,5.0404,5.0465,5.0555,5.061,5.072,5.0808,5.0893,5.0932,5.0927,5.0928,5.095,5.0948,5.0935,5.0945,5.0718,5.0923,5.0921,5.092,5.0919,5.0919,5.0103,5.0167,5.0229,5.0311,5.0359,5.0417,5.0482,5.0517,5.0592,5.0682,5.0691,5.0789,5.0853,5.0967,5.101,5.1088,5.1067,5.1098,5.1106,5.1114,5.112,5.0922,5.1103,5.1103,5.1103,5.1102,5.1102,0,5.0272,5.0311,5.0386,5.0472,5.0537,5.0525,5.0592,5.0648,5.0734,5.0794,5.0864,5.0969,5.1055,5.1104,5.1191,5.1244,5.1244,5.1266,5.1263,5.1273,5.1133,5.1106,5.1265,5.1265,5.1265,5.1265,5.1265,5.1265,5.0367,5.0476,5.0494,5.0627,5.0667,5.0761,5.0802,5.0856,5.0904,5.1021,5.1091,5.1123,5.118,5.127,5.1349,5.1362,5.1395,5.1419,5.143,5.1299,5.1282,5.1266,5.1241,5.1426,5.1426,5.1564,5.1565,5.1566]},{"header":{"parameterUnit":"m.s-1","parameterCategory":1,"la1":30.2991,"la2":30.254,"lo1":-89.0895,"lo2":-89.0444,"dy":0.0017,"dx":0.0017,"nx":28,"ny":28,"refTime":"2025-04-15T09:00:00:Z","depth":0,"parameterNumber":3,"parameterNumberName":"V-component_of_WINDS"},"data":[0,0,0,0,0,0,0,0,0,0,0,0,0,0,0,0,0,0,0,0,0,0,0,0,0,0,0,0,0,0,0,0,0,0,0,0,0,0,0,0,0,0,0,0,0,0,0,0,0,0,0,0,0,0,0,0,0,0,-2.1303,-2.1303,0,-2.1306,-2.1306,-2.1307,-2.1301,-2.1301,-2.1301,-2.1301,-2.1305,-2.1305,-2.1305,0,0,0,0,0,0,0,0,0,0,0,0,0,-2.1292,-2.1292,-2.1303,-2.1303,-2.1303,-2.1306,-2.1306,-2.1307,-2.1301,-2.1301,-2.1301,-2.1301,-2.1304,-2.1305,-2.1305,0,0,0,0,0,0,0,0,0,0,0,0,0,-2.1296,-2.1292,-2.1303,-2.1301,-2.13,-2.1306,-2.1307,-2.1307,-2.1301,-2.1301,-2.1301,-2.13,-2.1304,-2.1305,-2.1305,-2.1313,0,0,-2.1306,-2.1307,0,0,0,0,0,0,0,0,-2.1296,-2.1296,-2.1301,-2.1301,-2.1301,-2.1303,-2.1304,-2.1309,-2.1301,-2.1301,-2.1301,-2.13,-2.1304,-2.1305,-2.1306,-2.1314,-2.1314,-2.1306,-2.1307,-2.1307,-2.1307,0,0,0,0,0,0,0,-2.1296,-2.1296,-2.1304,-2.1301,-2.1301,-2.13,-2.13,-2.1305,-2.1304,-2.1301,-2.1301,-2.1301,-2.1304,-2.1306,-2.1306,-2.1314,-2.1306,-2.1307,-2.1307,-2.1307,-2.1329,-2.1329,0,0,0,0,0,0,-2.1295,-2.1296,-2.1304,-2.1304,-2.1297,-2.13,-2.13,-2.1303,-2.1304,-2.1304,-2.1301,-2.1301,-2.1305,-2.1306,-2.1306,-2.1316,-2.1307,-2.1307,-2.1308,-2.1329,-2.1329,-2.1329,0,0,0,0,0,0,-2.1295,-2.1296,-2.1304,-2.13,-2.1301,-2.1301,-2.1303,-2.1303,-2.1304,-2.1304,-2.1304,-2.1303,-2.1305,-2.1306,-2.1312,-2.1316,-2.1307,-2.1308,-2.1328,-2.1329,-2.1329,-2.1336,0,0,0,0,0,0,-2.1295,-2.1296,-2.1299,-2.13,-2.1301,-2.1309,-2.1303,-2.1303,-2.1305,-2.1304,-2.1306,-2.1306,-2.1305,-2.1311,-2.1312,-2.1317,-2.1308,-2.1328,-2.1328,-2.1329,-2.1336,-2.1337,-2.1338,0,0,0,0,0,-2.1295,-2.1301,-2.1299,-2.13,-2.1305,-2.131,-2.131,-2.1309,-2.1305,-2.1308,-2.1309,-2.1306,-2.1316,-2.1312,-2.1313,-2.1318,-2.1328,-2.1328,-2.1329,-2.1335,-2.1337,-2.1338,0,0,0,0,0,0,-2.13,-2.1301,-2.1299,-2.1306,-2.1308,-2.1309,-2.1312,-2.131,-2.1313,-2.1312,-2.1311,-2.1311,-2.1318,-2.1318,-2.1314,-2.1326,-2.1321,-2.1322,-2.1325,-2.1327,-2.1328,-2.1328,-2.1309,0,0,0,0,0,-2.1302,-2.1306,-2.1306,-2.1312,-2.1313,-2.1313,-2.1315,-2.1314,-2.1315,-2.1316,-2.1317,-2.1319,-2.1322,-2.1325,-2.1328,-2.1336,-2.1336,-2.134,-2.1341,-2.1342,-2.1343,-2.1347,-2.1349,-2.1332,-2.1332,-2.1332,0,0,-2.1306,-2.1307,-2.131,-2.1313,-2.1315,-2.1319,-2.1313,-2.1318,-2.1321,-2.1317,-2.1323,-2.1323,-2.1325,-2.1333,-2.1336,-2.1333,-2.1348,-2.1343,-2.1344,-2.1344,-2.1348,-2.135,-2.1351,-2.1332,-2.1332,-2.1332,0,0,-2.1316,-2.1317,-2.1322,-2.1324,-2.1326,-2.1325,-2.1327,-2.1328,-2.1328,-2.1334,-2.1332,-2.1335,-2.1341,-2.1343,-2.1345,-2.1356,-2.1353,-2.1357,-2.1363,-2.1368,-2.1369,-2.137,-2.1375,-2.1376,-2.1358,-2.1358,-2.1358,0,-2.1321,-2.1327,-2.1325,-2.133,-2.1332,-2.1328,-2.1334,-2.1336,-2.1339,-2.134,-2.1337,-2.1345,-2.1346,-2.1354,-2.1357,-2.1358,-2.136,-2.1357,-2.1369,-2.137,-2.1371,-2.1375,-2.1377,-2.1358,-2.1358,-2.1358,-2.1358,0,-2.1333,-2.1337,-2.1341,-2.1344,-2.1346,-2.1352,-2.1351,-2.1354,-2.1353,-2.1353,-2.1359,-2.1361,-2.1364,-2.1366,-2.1365,-2.1374,-2.1372,-2.1369,-2.1364,-2.1374,-2.1377,-2.1379,-2.1359,-2.1359,-2.1359,-2.1359,0,0,-2.1346,-2.1348,-2.135,-2.1351,-2.1354,-2.1357,-2.1362,-2.1366,-2.1368,-2.1371,-2.1375,-2.1381,-2.1378,-2.138,-2.1379,-2.1383,-2.1392,-2.138,-2.138,-2.1382,-2.1403,-2.1405,-2.1407,-2.1391,-2.1391,-2.1391,-2.1403,0,-2.1355,-2.1364,-2.1363,-2.1372,-2.1376,-2.1373,-2.1378,-2.138,-2.138,-2.1384,-2.1384,-2.1388,-2.1385,-2.1386,-2.139,-2.139,-2.1397,-2.139,-2.1395,-2.1395,-2.1395,-2.1409,-2.1411,-2.1421,-2.1404,-2.1404,-2.1405,0,-2.1368,-2.1371,-2.138,-2.1382,-2.1384,-2.1388,-2.1391,-2.1395,-2.1397,-2.1397,-2.14,-2.1398,-2.1404,-2.1399,-2.1407,-2.1402,-2.1405,-2.1405,-2.1406,-2.1406,-2.14,-2.1409,-2.1424,-2.1426,-2.1407,-2.1407,-2.1406,0,-2.1377,-2.1383,-2.1389,-2.1391,-2.1393,-2.1396,-2.1397,-2.14,-2.1402,-2.1405,-2.1407,-2.1411,-2.1413,-2.1416,-2.1416,-2.1412,-2.1424,-2.1419,-2.1424,-2.1424,-2.1427,-2.1427,-2.1442,-2.1428,-2.1428,-2.1428,-2.1428,0,-2.1388,-2.1393,-2.1393,-2.1397,-2.1403,-2.1402,-2.1409,-2.141,-2.1412,-2.1416,-2.1414,-2.1418,-2.1417,-2.1421,-2.1421,-2.1428,-2.1429,-2.1429,-2.1429,-2.143,-2.1429,-2.1431,-2.143,-2.1429,-2.1429,-2.1429,-2.1428,0,-2.1398,-2.1398,-2.1405,-2.1407,-2.1408,-2.1412,-2.1414,-2.1418,-2.1418,-2.1424,-2.1425,-2.1426,-2.1431,-2.1431,-2.1436,-2.1436,-2.1444,-2.1444,-2.1444,-2.1443,-2.1449,-2.1448,-2.1466,-2.1468,-2.1453,-2.1453,-2.1453,0,-2.1405,-2.141,-2.1412,-2.1415,-2.1416,-2.1421,-2.1423,-2.1423,-2.1425,-2.1429,-2.1432,-2.1437,-2.1441,-2.1449,-2.145,-2.1454,-2.1453,-2.1459,-2.1454,-2.1454,-2.1453,-2.1453,-2.1454,-2.146,-2.146,-2.146,-2.1461,0,-2.1418,-2.1418,-2.1422,-2.1425,-2.1429,-2.1432,-2.1434,-2.1437,-2.1437,-2.144,-2.1445,-2.1448,-2.1454,-2.1458,-2.1463,-2.1464,-2.1463,-2.1462,-2.1464,-2.1464,-2.1464,-2.1464,-2.1446,-2.1462,-2.1462,-2.1462,-2.1462,-2.1462,-2.1427,-2.1431,-2.1433,-2.1438,-2.144,-2.1443,-2.1446,-2.1447,-2.1451,-2.1456,-2.1456,-2.1461,-2.1464,-2.147,-2.1472,-2.1476,-2.1474,-2.1476,-2.1477,-2.1477,-2.1478,-2.1463,-2.1477,-2.1477,-2.1477,-2.1477,-2.1477,0,-2.144,-2.1441,-2.1445,-2.1449,-2.1453,-2.1451,-2.1454,-2.1457,-2.1462,-2.1465,-2.1469,-2.1475,-2.1479,-2.1481,-2.1486,-2.1489,-2.1488,-2.149,-2.149,-2.149,-2.1479,-2.1478,-2.1491,-2.1491,-2.1491,-2.1491,-2.1491,-2.1491,-2.1447,-2.1453,-2.1453,-2.1461,-2.1463,-2.1468,-2.147,-2.1473,-2.1475,-2.1481,-2.1485,-2.1486,-2.1489,-2.1494,-2.1498,-2.1499,-2.15,-2.1503,-2.1503,-2.1492,-2.1491,-2.149,-2.1488,-2.1503,-2.1503,-2.1513,-2.1513,-2.1513]}]]